Location: Delettes
(50.6178°N, 2.2123°E)
Time: 01:59:18
(UTC+00:00)

ATLAS 3B R/B - Pass Details

Date: 27 February 2020
Orbit: 1029 x 1166 km, 63.8° (Epoch: 12 March)

Event Time Altitude Azimuth Distance (km) Brightness Sun altitude
Rises 21:14:57 0° 316° (NW) 3,804 6.6 -35.2°
Reaches altitude 10° 21:17:33 10° 315° (NW) 2,858 5.7 -35.5°
Enters shadow 21:22:45 55° 297° (WNW) 1,254 3.2 -36.2°
